TimeEST,TemperatureF,Dew PointF,Humidity,Sea Level PressureIn,VisibilityMPH,Wind Direction,Wind SpeedMPH,Gust SpeedMPH,PrecipitationIn,Events,Conditions,WindDirDegrees,DateUTC
12:14 AM,35.6,28.4,75,29.64,10.0,WSW,9.2,16.1,N/A,,Overcast,250,2014-01-12 05:14:00
12:34 AM,35.6,28.4,75,29.65,10.0,WSW,9.2,-,N/A,,Overcast,250,2014-01-12 05:34:00
12:54 AM,35.6,28.4,75,29.64,10.0,WSW,9.2,17.3,N/A,,Overcast,250,2014-01-12 05:54:00
1:13 AM,35.6,28.4,75,29.65,10.0,WSW,9.2,-,N/A,,Overcast,250,2014-01-12 06:13:00
1:34 AM,33.8,28.4,81,29.66,10.0,WSW,6.9,-,N/A,,Overcast,250,2014-01-12 06:34:00
1:54 AM,33.8,30.2,87,29.67,7.0,West,8.1,-,N/A,,Overcast,260,2014-01-12 06:54:00
2:14 AM,33.8,30.2,87,29.67,7.0,West,6.9,-,N/A,,Overcast,260,2014-01-12 07:14:00
2:34 AM,33.8,30.2,87,29.69,7.0,West,6.9,-,N/A,,Overcast,260,2014-01-12 07:34:00
2:55 AM,33.8,30.2,87,29.70,10.0,West,9.2,16.1,N/A,,Overcast,280,2014-01-12 07:55:00
3:14 AM,35.6,28.4,75,29.71,10.0,West,13.8,18.4,N/A,,Overcast,280,2014-01-12 08:14:00
3:34 AM,33.8,28.4,81,29.72,10.0,WNW,16.1,19.6,N/A,,Overcast,290,2014-01-12 08:34:00
3:54 AM,33.8,26.6,75,29.73,10.0,West,11.5,19.6,N/A,,Overcast,270,2014-01-12 08:54:00
4:14 AM,33.8,28.4,81,29.75,10.0,West,11.5,18.4,N/A,,Overcast,280,2014-01-12 09:14:00
4:34 AM,33.8,28.4,81,29.75,10.0,WNW,11.5,17.3,N/A,,Overcast,290,2014-01-12 09:34:00
4:54 AM,33.8,28.4,81,29.76,10.0,West,11.5,18.4,N/A,,Overcast,280,2014-01-12 09:54:00
5:13 AM,33.8,28.4,81,29.76,10.0,West,10.4,19.6,N/A,,Overcast,270,2014-01-12 10:13:00
5:34 AM,33.8,28.4,81,29.77,10.0,West,9.2,-,N/A,,Overcast,270,2014-01-12 10:34:00
5:54 AM,33.8,28.4,81,29.79,10.0,West,9.2,-,N/A,,Overcast,260,2014-01-12 10:54:00
6:14 AM,33.8,28.4,81,29.80,10.0,West,8.1,-,N/A,,Overcast,270,2014-01-12 11:14:00
6:34 AM,33.8,28.4,81,29.80,10.0,West,5.8,-,N/A,,Overcast,270,2014-01-12 11:34:00
6:55 AM,33.8,28.4,81,29.81,10.0,WSW,4.6,-,N/A,,Overcast,250,2014-01-12 11:55:00
7:14 AM,33.8,28.4,81,29.81,10.0,SW,5.8,-,N/A,,Overcast,230,2014-01-12 12:14:00
7:34 AM,33.8,28.4,81,29.82,10.0,WSW,4.6,-,N/A,,Overcast,240,2014-01-12 12:34:00
7:55 AM,33.8,28.4,81,29.83,10.0,WSW,6.9,-,N/A,,Overcast,240,2014-01-12 12:55:00
8:14 AM,33.8,28.4,81,29.84,10.0,WSW,6.9,-,N/A,,Overcast,250,2014-01-12 13:14:00
8:34 AM,33.8,28.4,81,29.85,10.0,WSW,8.1,-,N/A,,Overcast,240,2014-01-12 13:34:00
8:54 AM,35.6,28.4,75,29.87,10.0,WSW,5.8,-,N/A,,Overcast,240,2014-01-12 13:54:00
9:14 AM,35.6,28.4,75,29.87,10.0,SW,4.6,-,N/A,,Overcast,230,2014-01-12 14:14:00
9:34 AM,35.6,28.4,75,29.90,10.0,WSW,6.9,-,N/A,,Overcast,240,2014-01-12 14:34:00
9:54 AM,35.6,28.4,75,29.91,10.0,SW,6.9,-,N/A,,Overcast,230,2014-01-12 14:54:00
10:14 AM,35.6,28.4,75,29.91,10.0,SW,15.0,-,N/A,,Overcast,230,2014-01-12 15:14:00
10:34 AM,35.6,26.6,70,29.92,10.0,SW,12.7,17.3,N/A,,Mostly Cloudy,230,2014-01-12 15:34:00
10:54 AM,35.6,26.6,70,29.92,10.0,WSW,10.4,-,N/A,,Mostly Cloudy,240,2014-01-12 15:54:00
11:14 AM,35.6,26.6,70,29.94,10.0,SW,10.4,18.4,N/A,,Mostly Cloudy,230,2014-01-12 16:14:00
11:34 AM,35.6,26.6,70,29.93,10.0,WSW,11.5,19.6,N/A,,Mostly Cloudy,240,2014-01-12 16:34:00
11:54 AM,35.6,26.6,70,29.93,10.0,WSW,13.8,18.4,N/A,,Mostly Cloudy,240,2014-01-12 16:54:00
12:14 PM,35.6,26.6,70,29.91,10.0,SW,12.7,17.3,N/A,,Mostly Cloudy,220,2014-01-12 17:14:00
12:35 PM,35.6,28.4,75,29.90,10.0,SW,10.4,17.3,N/A,,Mostly Cloudy,230,2014-01-12 17:35:00
12:54 PM,35.6,28.4,75,29.90,10.0,SW,13.8,17.3,N/A,,Mostly Cloudy,220,2014-01-12 17:54:00
1:14 PM,37.4,28.4,70,29.90,10.0,SW,9.2,17.3,N/A,,Mostly Cloudy,220,2014-01-12 18:14:00
1:35 PM,37.4,28.4,70,29.88,10.0,SW,9.2,-,N/A,,Scattered Clouds,220,2014-01-12 18:35:00
1:54 PM,37.4,28.4,70,29.87,10.0,SSW,9.2,-,N/A,,Clear,210,2014-01-12 18:54:00
2:14 PM,35.6,28.4,75,29.88,10.0,South,17.3,-,N/A,,Clear,190,2014-01-12 19:14:00
2:34 PM,35.6,28.4,75,29.88,10.0,SSW,13.8,18.4,N/A,,Clear,200,2014-01-12 19:34:00
2:54 PM,35.6,28.4,75,29.86,10.0,South,19.6,-,N/A,,Clear,180,2014-01-12 19:54:00
3:14 PM,33.8,28.4,81,29.86,10.0,South,20.7,25.3,N/A,,Clear,190,2014-01-12 20:14:00
3:34 PM,33.8,28.4,81,29.86,10.0,South,19.6,-,N/A,,Clear,190,2014-01-12 20:34:00
3:54 PM,33.8,28.4,81,29.88,10.0,SSW,13.8,24.2,N/A,,Scattered Clouds,200,2014-01-12 20:54:00
4:14 PM,33.8,28.4,81,29.89,10.0,SSW,16.1,20.7,N/A,,Scattered Clouds,210,2014-01-12 21:14:00
4:34 PM,33.8,28.4,81,29.89,10.0,SSW,10.4,-,N/A,,Clear,200,2014-01-12 21:34:00
4:54 PM,33.8,28.4,81,29.89,10.0,SSW,10.4,-,N/A,,Scattered Clouds,200,2014-01-12 21:54:00
5:14 PM,33.8,28.4,81,29.88,10.0,South,12.7,-,N/A,,Clear,190,2014-01-12 22:14:00
5:34 PM,33.8,30.2,87,29.88,10.0,South,10.4,-,N/A,,Clear,170,2014-01-12 22:34:00
5:54 PM,33.8,30.2,87,29.88,10.0,South,12.7,-,N/A,,Clear,180,2014-01-12 22:54:00
6:14 PM,33.8,30.2,87,29.88,10.0,South,10.4,-,N/A,,Clear,170,2014-01-12 23:14:00
6:34 PM,33.8,30.2,87,29.87,10.0,South,10.4,-,N/A,,Clear,170,2014-01-12 23:34:00
6:54 PM,33.8,30.2,87,29.87,10.0,South,12.7,-,N/A,,Clear,180,2014-01-12 23:54:00
7:14 PM,33.8,30.2,87,29.87,10.0,South,12.7,-,N/A,,Clear,180,2014-01-13 00:14:00
7:34 PM,33.8,30.2,87,29.86,10.0,South,13.8,-,N/A,,Clear,180,2014-01-13 00:34:00
7:55 PM,33.8,30.2,87,29.84,10.0,South,13.8,18.4,N/A,,Clear,170,2014-01-13 00:55:00
8:14 PM,33.8,30.2,87,29.82,7.0,South,15.0,-,N/A,,Clear,170,2014-01-13 01:14:00
8:34 PM,33.8,30.2,87,29.83,7.0,South,13.8,-,N/A,,Clear,180,2014-01-13 01:34:00
8:55 PM,33.8,30.2,87,29.81,7.0,South,15.0,-,N/A,,Clear,180,2014-01-13 01:55:00
9:14 PM,33.8,30.2,87,29.80,10.0,South,16.1,-,N/A,,Clear,180,2014-01-13 02:14:00
9:34 PM,33.8,30.2,87,29.80,7.0,South,15.0,-,N/A,,Clear,190,2014-01-13 02:34:00
9:54 PM,33.8,30.2,87,29.80,7.0,South,13.8,-,N/A,,Clear,190,2014-01-13 02:54:00
10:14 PM,33.8,30.2,87,29.79,7.0,South,15.0,-,N/A,,Clear,190,2014-01-13 03:14:00
10:34 PM,33.8,30.2,87,29.80,7.0,SSW,11.5,-,N/A,,Clear,200,2014-01-13 03:34:00
10:54 PM,35.6,30.2,81,29.80,10.0,SSW,13.8,-,N/A,,Clear,200,2014-01-13 03:54:00
11:14 PM,35.6,30.2,81,29.79,10.0,SSW,10.4,-,N/A,,Clear,200,2014-01-13 04:14:00
11:34 PM,35.6,30.2,81,29.78,10.0,South,10.4,-,N/A,,Clear,180,2014-01-13 04:34:00
11:54 PM,33.8,30.2,87,29.78,10.0,South,10.4,-,N/A,,Clear,190,2014-01-13 04:54:00